FW3572 Weather Reports


Display with metric or nautical units.
time (UTC)temp
F
wind
direction
speed
MPH
gust
MPH
rain 1hr
in
rain 24hr
in
rain mn
in
humidity
%
barometer
mb
20190116223553 60 215 4.0 9.0 0.00 0.00 0.00 67 1023.4
20190116223121 60 355 4.0 10.0 0.00 0.00 0.00 66 1023.4
20190116222553 61 332 5.0 10.0 0.00 0.00 0.00 66 1023.5
20190116222053 61 11 4.0 13.0 0.00 0.00 0.00 65 1023.4
20190116221644 61 343 4.0 13.0 0.00 0.00 0.00 65 1023.4
20190116221055 61 10 3.0 11.0 0.00 0.00 0.00 66 1023.4
20190116220555 61 53 3.0 10.0 0.00 0.00 0.00 67 1023.3
20190116220134 61 13 3.0 10.0 0.00 0.00 0.00 67 1023.3
20190116215600 61 360 2.0 10.0 0.00 0.00 0.00 67 1023.2
20190116215052 61 320 2.0 10.0 0.00 0.00 0.00 66 1023.3
20190116214606 61 28 4.0 10.0 0.00 0.00 0.00 65 1023.1
20190116214051 61 5 3.0 10.0 0.00 0.00 0.00 64 1023.2
20190116213556 61 360 3.0 10.0 0.00 0.00 0.00 64 1023.2
20190116213239 61 29 3.0 9.0 0.00 0.00 0.00 66 1023.3
20190116212551 61 244 4.0 13.0 0.00 0.00 0.00 66 1023.2
20190116212054 61 315 3.0 13.0 0.00 0.00 0.00 66 1023.2
20190116211712 62 331 4.0 13.0 0.00 0.00 0.00 65 1023.1
20190116211055 62 300 5.0 13.0 0.00 0.00 0.00 64 1023.1
20190116210553 62 13 5.0 13.0 0.00 0.00 0.00 64 1023.2
20190116210240 62 334 4.0 11.0 0.00 0.00 0.00 64 1023.3
20190116205555 62 14 3.0 11.0 0.00 0.00 0.00 63 1023.2
20190116205049 62 311 2.0 11.0 0.00 0.00 0.00 64 1023.1
20190116204617 62 324 3.0 11.0 0.00 0.00 0.00 65 1023.0
20190116204049 62 318 2.0 10.0 0.00 0.00 0.00 65 1023.0
20190116203549 62 333 4.0 10.0 0.00 0.00 0.00 64 1023.0
20190116203134 62 60 2.0 10.0 0.00 0.00 0.00 64 1022.7
20190116202053 61 19 2.0 13.0 0.00 0.00 0.00 63 1022.8
20190116201618 62 350 3.0 12.0 0.00 0.00 0.00 61 1022.9
20190116201051 61 36 6.0 12.0 0.00 0.00 0.00 62 1022.8
20190116200547 62 336 6.0 11.0 0.00 0.00 0.00 65 1022.8
20190116200105 62 317 4.0 13.0 0.00 0.00 0.00 65 1023.0
20190116195547 62 355 6.0 16.0 0.00 0.00 0.00 64 1022.8
20190116195050 62 48 4.0 16.0 0.00 0.00 0.00 64 1022.9
20190116194705 63 50 6.0 14.0 0.00 0.00 0.00 62 1023.1
20190116194050 63 360 3.0 11.0 0.00 0.00 0.00 62 1022.9
20190116193549 63 48 5.0 11.0 0.00 0.00 0.00 62 1022.8
20190116193152 63 270 3.0 11.0 0.00 0.00 0.00 61 1022.8
20190116192549 63 345 2.0 12.0 0.00 0.00 0.00 63 1022.8
20190116192049 63 13 4.0 13.0 0.00 0.00 0.00 62 1022.7
20190116191637 63 349 5.0 11.0 0.00 0.00 0.00 63 1022.8
20190116191047 63 9 2.0 12.0 0.00 0.00 0.00 65 1022.7
20190116190543 63 26 5.0 15.0 0.00 0.00 0.00 65 1022.7
20190116190131 63 22 3.0 15.0 0.00 0.00 0.00 65 1022.7
20190116185545 63 344 6.0 14.0 0.00 0.00 0.00 64 1022.8
20190116185043 64 302 6.0 14.0 0.00 0.00 0.00 62 1022.9
20190116184614 64 25 4.0 13.0 0.00 0.00 0.00 62 1023.1
20190116184046 64 338 3.0 14.0 0.00 0.00 0.00 62 1023.2
20190116183544 63 5 5.0 14.0 0.00 0.00 0.00 62 1023.4
20190116183133 64 30 7.0 16.0 0.00 0.00 0.00 62 1023.5
20190116182540 64 326 7.0 14.0 0.00 0.00 0.00 65 1023.6
20190116182040 63 347 5.0 11.0 0.00 0.00 0.00 67 1023.4
20190116181718 63 360 6.0 14.0 0.00 0.00 0.00 66 1023.2
20190116181040 63 339 5.0 14.0 0.00 0.00 0.00 67 1023.1
20190116180540 63 5 4.0 14.0 0.00 0.00 0.00 67 1023.4
20190116180145 63 351 3.0 14.0 0.00 0.00 0.00 67 1023.6
20190116175539 63 38 7.0 13.0 0.00 0.00 0.00 66 1023.6
20190116175039 63 306 5.0 14.0 0.00 0.00 0.00 67 1023.7
20190116174606 63 5 6.0 14.0 0.00 0.00 0.00 67 1023.9
20190116174043 63 9 4.0 14.0 0.00 0.00 0.00 66 1023.8
20190116173539 65 313 6.0 12.0 0.00 0.00 0.00 64 1023.8
20190116173109 65 342 3.0 11.0 0.00 0.00 0.00 65 1023.9
20190116172539 64 325 5.0 13.0 0.00 0.00 0.00 66 1024.1
20190116172037 64 292 4.0 13.0 0.00 0.00 0.00 67 1024.2
20190116171605 64 360 7.0 13.0 0.00 0.00 0.00 66 1024.1
20190116171037 64 338 4.0 13.0 0.00 0.00 0.00 66 1024.2
20190116170537 64 37 5.0 13.0 0.00 0.00 0.00 65 1024.5
20190116170050 64 360 1.0 13.0 0.00 0.00 0.00 67 1024.7
20190116165536 63 319 5.0 13.0 0.00 0.00 0.00 67 1024.8
20190116165039 63 350 4.0 12.0 0.00 0.00 0.00 67 1024.8
20190116164648 62 251 5.0 14.0 0.00 0.00 0.00 68 1024.7
20190116164034 62 17 5.0 12.0 0.00 0.00 0.00 68 1024.7
20190116163533 62 16 4.0 16.0 0.00 0.00 0.00 68 1024.8
20190116163111 63 325 7.0 16.0 0.00 0.00 0.00 66 1024.9
20190116162533 63 26 6.0 12.0 0.00 0.00 0.00 65 1025.2
20190116162031 62 343 4.0 12.0 0.00 0.00 0.00 67 1025.1
20190116161545 61 28 5.0 12.0 0.00 0.00 0.00 67 1025.3
20190116161030 61 339 5.0 12.0 0.00 0.00 0.00 67 1025.2
20190116160528 61 307 5.0 11.0 0.00 0.00 0.00 67 1025.1
20190116160102 60 307 5.0 12.0 0.00 0.00 0.00 69 1025.0
20190116155527 59 20 8.0 17.0 0.00 0.00 0.00 69 1025.0
20190116155027 60 342 7.0 17.0 0.00 0.00 0.00 67 1024.9
20190116154538 60 5 5.0 17.0 0.00 0.00 0.00 68 1025.0
20190116154031 59 10 8.0 17.0 0.00 0.00 0.00 68 1025.2
20190116153530 60 38 4.0 16.0 0.00 0.00 0.00 68 1025.4
20190116153128 60 254 7.0 16.0 0.00 0.00 0.00 67 1025.4
20190116152524 60 309 3.0 12.0 0.00 0.00 0.00 67 1025.4
20190116152025 59 349 3.0 12.0 0.00 0.00 0.00 67 1025.3
20190116151536 59 339 5.0 10.0 0.00 0.00 0.00 67 1025.3
20190116151025 58 324 4.0 10.0 0.00 0.00 0.00 68 1025.4
20190116150518 58 313 3.0 8.0 0.00 0.00 0.00 69 1025.3
20190116150110 57 338 2.0 9.0 0.00 0.00 0.00 71 1025.3
20190116145515 56 347 3.0 11.0 0.00 0.00 0.00 71 1025.1
20190116145015 56 315 4.0 11.0 0.00 0.00 0.00 70 1025.2
20190116144532 56 350 1.0 11.0 0.00 0.00 0.00 71 1024.9
20190116144015 55 25 3.0 11.0 0.00 0.00 0.00 70 1024.9
20190116143512 56 295 4.0 11.0 0.00 0.00 0.00 69 1024.9
20190116143020 55 334 2.0 8.0 0.00 0.00 0.00 70 1024.9
20190116142511 54 335 3.0 8.0 0.00 0.00 0.00 70 1024.9
20190116142012 54 326 2.0 6.0 0.00 0.00 0.00 71 1024.7
20190116141535 53 280 2.0 8.0 0.00 0.00 0.00 71 1024.5
20190116141010 53 325 2.0 9.0 0.00 0.00 0.00 71 1024.6
20190116140507 52 360 3.0 9.0 0.00 0.00 0.00 72 1024.5
20190116140012 51 344 4.0 9.0 0.00 0.00 0.00 72 1024.5
20190116135503 51 360 4.0 10.0 0.00 0.00 0.00 72 1024.3
20190116135102 50 315 4.0 10.0 0.00 0.00 0.00 73 1024.3
20190116134737 50 294 4.0 9.0 0.00 0.00 0.00 73 1024.2
20190116134057 49 314 3.0 8.0 0.00 0.00 0.00 73 1024.1
20190116133557 49 317 4.0 8.0 0.00 0.00 0.00 73 1024.1
20190116133115 49 324 2.0 9.0 0.00 0.00 0.00 73 1024.2
20190116132601 49 324 3.0 9.0 0.00 0.00 0.00 73 1024.2
20190116132058 48 327 2.0 8.0 0.00 0.00 0.00 75 1024.0
20190116131624 48 355 3.0 6.0 0.00 0.00 0.00 75 1024.0
20190116131056 47 350 3.0 6.0 0.00 0.00 0.00 75 1023.8
20190116130558 47 360 3.0 8.0 0.00 0.00 0.00 76 1023.7
20190116130123 46 312 3.0 10.0 0.00 0.00 0.00 77 1023.7
20190116125558 46 333 4.0 10.0 0.00 0.00 0.00 77 1023.7
20190116125059 46 286 4.0 9.0 0.00 0.00 0.00 77 1023.9
20190116124614 46 337 1.0 9.0 0.00 0.00 0.00 77 1023.8
20190116124053 45 311 3.0 9.0 0.00 0.00 0.00 77 1023.7
20190116123557 45 323 2.0 8.0 0.00 0.00 0.00 77 1023.8
20190116123146 45 318 2.0 6.0 0.00 0.00 0.00 77 1023.8
20190116122552 45 315 3.0 6.0 0.00 0.00 0.00 77 1023.6
20190116122052 45 349 2.0 6.0 0.00 0.00 0.00 77 1023.5
20190116121719 45 327 2.0 5.0 0.00 0.00 0.00 77 1023.6
20190116121055 45 310 2.0 6.0 0.00 0.00 0.00 77 1023.6
20190116120550 45 350 3.0 8.0 0.00 0.00 0.00 77 1023.5
20190116120109 45 302 3.0 9.0 0.00 0.00 0.00 76 1023.6
20190116115553 45 314 4.0 9.0 0.00 0.00 0.00 76 1023.6
20190116115048 45 339 3.0 11.0 0.00 0.00 0.00 76 1023.6
20190116114703 45 327 4.0 11.0 0.00 0.00 0.00 76 1023.6
20190116114048 45 328 3.0 10.0 0.00 0.00 0.00 76 1023.6
20190116113550 45 326 4.0 10.0 0.00 0.00 0.00 76 1023.6
20190116113137 45 344 2.0 9.0 0.00 0.00 0.00 76 1023.5
20190116112546 45 327 3.0 9.0 0.00 0.00 0.00 76 1023.3
20190116112045 45 322 4.0 8.0 0.00 0.00 0.00 76 1023.3
20190116111748 45 329 3.0 10.0 0.00 0.00 0.00 76 1023.3
20190116111042 45 334 3.0 10.0 0.00 0.00 0.00 76 1023.3
20190116110541 45 331 2.0 9.0 0.00 0.00 0.00 75 1023.1
20190116110113 45 58 3.0 9.0 0.00 0.00 0.00 75 1022.9
20190116105546 46 360 4.0 9.0 0.00 0.00 0.00 75 1022.9
20190116105039 46 342 3.0 9.0 0.00 0.00 0.00 75 1023.0
20190116104604 46 339 3.0 8.0 0.00 0.00 0.00 75 1022.9
20190116104038 46 298 3.0 8.0 0.00 0.00 0.00 74 1022.9
20190116103538 46 331 3.0 9.0 0.00 0.00 0.00 74 1022.7
20190116103058 46 338 3.0 10.0 0.00 0.00 0.00 74 1022.8
20190116102539 46 325 3.0 9.0 0.00 0.00 0.00 74 1022.9
20190116102038 46 324 4.0 10.0 0.00 0.00 0.00 74 1022.8
20190116101621 46 351 4.0 10.0 0.00 0.00 0.00 74 1022.7
20190116101037 46 315 4.0 10.0 0.00 0.00 0.00 74 1022.7
20190116100534 46 328 4.0 10.0 0.00 0.00 0.00 74 1022.8
20190116100052 46 292 2.0 8.0 0.00 0.00 0.00 74 1022.7
20190116095534 46 346 3.0 8.0 0.00 0.00 0.00 74 1022.6
20190116095031 46 320 3.0 9.0 0.00 0.00 0.00 74 1022.7
20190116094030 46 302 4.0 9.0 0.00 0.00 0.00 73 1022.4
20190116093530 46 297 4.0 8.0 0.00 0.00 0.00 74 1022.4
20190116093115 46 313 3.0 9.0 0.00 0.00 0.00 73 1022.3
20190116092528 46 321 3.0 6.0 0.00 0.00 0.00 73 1022.4
20190116092028 46 342 2.0 10.0 0.00 0.00 0.00 73 1022.2
20190116091604 46 325 5.0 10.0 0.00 0.00 0.00 73 1022.3
20190116091027 46 306 2.0 8.0 0.00 0.00 0.00 73 1022.5
20190116090528 46 355 3.0 9.0 0.00 0.00 0.00 73 1022.7
20190116090041 46 286 4.0 9.0 0.00 0.00 0.00 73 1022.7
20190116085523 46 323 3.0 9.0 0.00 0.00 0.00 73 1022.8
20190116085023 46 320 3.0 9.0 0.00 0.00 0.00 72 1022.8
20190116084542 46 313 4.0 9.0 0.00 0.00 0.00 72 1022.9
20190116084022 46 360 3.0 10.0 0.00 0.00 0.00 72 1022.8
20190116083525 46 340 4.0 10.0 0.00 0.00 0.00 72 1022.9
20190116083048 46 323 4.0 10.0 0.00 0.00 0.00 72 1022.9
20190116082520 47 311 3.0 11.0 0.00 0.00 0.00 72 1023.0
20190116082023 47 244 3.0 9.0 0.00 0.00 0.00 72 1023.0
20190116081554 47 296 4.0 11.0 0.00 0.00 0.00 72 1023.1
20190116081018 47 281 3.0 11.0 0.00 0.00 0.00 72 1023.2
20190116080518 47 324 3.0 9.0 0.00 0.00 0.00 73 1023.0
20190116080058 47 355 3.0 9.0 0.00 0.00 0.00 73 1023.1
20190116075517 47 345 4.0 9.0 0.00 0.00 0.00 73 1023.0
20190116075015 47 304 3.0 8.0 0.00 0.00 0.00 72 1023.0
20190116074522 47 315 2.0 6.0 0.00 0.00 0.00 72 1023.0
20190116074016 47 321 2.0 8.0 0.00 0.00 0.00 72 1022.9
20190116073512 48 331 2.0 8.0 0.00 0.00 0.00 72 1022.8
20190116073021 48 306 1.0 8.0 0.00 0.00 0.00 72 1022.8
20190116072517 48 309 2.0 8.0 0.00 0.00 0.00 72 1022.9
20190116072012 48 316 2.0 8.0 0.00 0.00 0.00 72 1023.0
20190116071524 48 319 2.0 7.0 0.00 0.00 0.00 72 1023.0
20190116071016 48 302 2.0 8.0 0.00 0.00 0.00 72 1022.9
20190116070512 48 300 3.0 6.0 0.00 0.00 0.00 72 1023.0
20190116070029 48 346 3.0 6.0 0.00 0.00 0.00 72 1023.0
20190116065512 48 319 3.0 9.0 0.00 0.00 0.00 72 1023.0
20190116065010 48 296 3.0 9.0 0.00 0.00 0.00 72 1023.2
20190116064510 48 315 3.0 9.0 0.00 0.00 0.00 72 1023.2
20190116064009 48 325 3.0 9.0 0.00 0.00 0.00 72 1023.1
20190116063508 48 47 3.0 8.0 0.00 0.00 0.00 72 1023.2
20190116063053 48 351 3.0 9.0 0.00 0.00 0.00 72 1023.1
20190116062528 48 318 4.0 9.0 0.00 0.00 0.00 71 1023.0
20190116062012 49 294 3.0 8.0 0.00 0.00 0.00 71 1023.0
20190116061521 49 288 4.0 8.0 0.00 0.00 0.00 71 1023.0
20190116061006 49 333 3.0 8.0 0.00 0.00 0.00 72 1022.8
20190116060504 49 302 3.0 9.0 0.00 0.00 0.00 72 1022.9
20190116060014 49 307 4.0 9.0 0.00 0.00 0.00 72 1022.9
20190116055503 49 355 4.0 10.0 0.00 0.00 0.00 72 1022.9
20190116055003 49 297 5.0 10.0 0.00 0.00 0.00 72 1023.1
20190116054503 49 310 3.0 9.0 0.00 0.00 0.00 72 1023.2
20190116053504 49 340 3.0 9.0 0.00 0.00 0.00 72 1023.3
20190116053229 49 321 4.0 9.0 0.00 0.00 0.00 72 1023.2
20190116052600 49 348 3.0 8.0 0.00 0.00 0.00 72 1023.2
20190116052059 50 10 4.0 8.0 0.00 0.00 0.00 72 1023.2
20190116051642 50 17 2.0 6.0 0.00 0.00 0.00 72 1023.1
20190116051057 50 312 2.0 8.0 0.00 0.00 0.00 72 1023.2
20190116050602 50 360 3.0 8.0 0.00 0.00 0.00 72 1023.1
20190116050216 50 319 2.0 9.0 0.00 0.00 0.00 72 1023.1
20190116045600 50 325 3.0 9.0 0.00 0.00 0.00 72 1023.2
20190116045057 50 338 3.0 8.0 0.00 0.00 0.00 72 1023.2
20190116044711 50 324 3.0 7.0 0.00 0.00 0.00 72 1023.2
20190116044057 50 273 2.0 9.0 0.00 0.00 0.00 72 1023.3
20190116043554 51 350 3.0 9.0 0.00 0.00 0.00 72 1023.3
20190116043235 51 315 2.0 10.0 0.00 0.00 0.00 72 1023.5
20190116042553 51 294 3.0 11.0 0.00 0.00 0.00 72 1023.4
20190116042053 51 310 2.0 11.0 0.00 0.00 0.00 72 1023.6
20190116041629 51 306 3.0 8.0 0.00 0.00 0.00 72 1023.6
20190116041053 51 321 2.0 8.0 0.00 0.00 0.00 72 1023.6
20190116040552 51 350 4.0 8.0 0.00 0.00 0.00 72 1023.6
20190116040137 51 311 4.0 8.0 0.00 0.00 0.00 72 1023.6
20190116035552 51 343 4.0 9.0 0.00 0.00 0.00 72 1023.5
20190116035101 51 318 4.0 9.0 0.00 0.00 0.00 73 1023.6
20190116034634 51 308 4.0 8.0 0.00 0.00 0.00 73 1023.6
20190116034052 51 320 3.0 8.0 0.00 0.00 0.00 73 1023.5
20190116033557 51 309 2.0 8.0 0.00 0.00 0.00 73 1023.5
20190116033106 51 310 2.0 8.0 0.00 0.00 0.00 73 1023.4
20190116032551 51 284 3.0 8.0 0.00 0.00 0.00 73 1023.4
20190116032055 51 319 3.0 8.0 0.00 0.00 0.00 73 1023.3
20190116031659 52 334 2.0 5.0 0.00 0.00 0.00 72 1023.3
20190116031050 52 290 2.0 8.0 0.00 0.00 0.00 72 1023.3
20190116030549 52 330 2.0 8.0 0.00 0.00 0.00 73 1023.1
20190116030246 52 314 2.0 8.0 0.00 0.00 0.00 72 1023.2
20190116025549 52 309 3.0 8.0 0.00 0.00 0.00 73 1023.2
20190116025050 52 304 3.0 6.0 0.00 0.00 0.00 72 1023.1
20190116024620 52 314 3.0 7.0 0.00 0.00 0.00 72 1023.1
20190116024048 52 302 2.0 6.0 0.00 0.00 0.00 72 1023.1
20190116023551 53 323 2.0 5.0 0.00 0.00 0.00 72 1023.1
20190116023135 53 292 2.0 5.0 0.00 0.00 0.00 72 1023.1
20190116022548 53 298 2.0 5.0 0.00 0.00 0.00 72 1023.0
20190116022049 53 324 2.0 5.0 0.00 0.00 0.00 71 1023.1
20190116021627 53 315 2.0 5.0 0.00 0.00 0.00 71 1023.1
20190116021049 53 333 3.0 5.0 0.00 0.00 0.00 71 1023.1
20190116020549 54 350 2.0 7.0 0.00 0.00 0.00 70 1023.2
20190116020112 54 312 2.0 7.0 0.00 0.00 0.00 70 1023.2
20190116015546 54 308 2.0 6.0 0.00 0.00 0.00 69 1023.2
20190116015051 54 317 2.0 5.0 0.00 0.00 0.00 69 1023.1
20190116014618 55 325 2.0 5.0 0.00 0.00 0.00 68 1023.0
20190116014046 55 306 2.0 5.0 0.00 0.00 0.00 68 1023.0
20190116013546 56 337 2.0 6.0 0.00 0.00 0.00 67 1022.9
20190116013210 56 346 2.0 6.0 0.00 0.00 0.00 67 1022.9
20190116012546 56 355 2.0 8.0 0.00 0.00 0.00 67 1022.9
20190116012046 56 360 3.0 6.0 0.00 0.00 0.00 67 1023.0
20190116011628 57 342 2.0 8.0 0.00 0.00 0.00 66 1023.0
20190116011045 57 294 2.0 8.0 0.00 0.00 0.00 66 1022.9
20190116010544 57 355 3.0 8.0 0.00 0.00 0.00 66 1022.8
20190116010121 57 5 3.0 8.0 0.00 0.00 0.00 66 1022.8
20190116005545 57 355 3.0 10.0 0.00 0.00 0.00 66 1022.7
20190116005044 57 320 4.0 10.0 0.00 0.00 0.00 66 1022.6
20190116004607 57 360 4.0 9.0 0.00 0.00 0.00 66 1022.4
20190116004043 57 360 3.0 8.0 0.00 0.00 0.00 66 1022.4
20190116003545 57 348 3.0 8.0 0.00 0.00 0.00 66 1022.5
20190116003143 57 10 3.0 8.0 0.00 0.00 0.00 66 1022.6
20190116002543 57 331 2.0 5.0 0.00 0.00 0.00 65 1022.7
20190116002042 57 311 2.0 8.0 0.00 0.00 0.00 65 1022.7
20190116001623 57 11 2.0 9.0 0.00 0.00 0.00 65 1022.7
20190116001043 57 351 4.0 10.0 0.00 0.00 0.00 65 1022.6
20190116000545 57 336 5.0 10.0 0.00 0.00 0.00 65 1022.6
20190116000059 57 319 3.0 6.0 0.00 0.00 0.00 65 1022.6
20190115235544 57 304 2.0 8.0 0.00 0.00 0.00 65 1022.9
20190115235041 57 351 2.0 8.0 0.00 0.00 0.00 65 1022.9
20190115234609 57 317 1.0 6.0 0.00 0.00 0.00 65 1022.8
20190115234040 57 10 2.0 6.0 0.00 0.00 0.00 64 1022.8
20190115233540 57 319 3.0 9.0 0.00 0.00 0.00 65 1022.7
20190115233128 57 360 1.0 9.0 0.00 0.00 0.00 64 1022.7
20190115232539 57 335 3.0 10.0 0.00 0.00 0.00 64 1022.6
20190115232039 57 333 2.0 10.0 0.00 0.00 0.00 64 1022.8
20190115231624 58 317 3.0 10.0 0.00 0.00 0.00 64 1022.8
20190115231043 58 326 4.0 11.0 0.00 0.00 0.00 63 1022.7
20190115230539 58 355 3.0 12.0 0.00 0.00 0.00 63 1022.7
20190115230114 58 324 3.0 12.0 0.00 0.00 0.00 63 1022.7
20190115225539 58 25 3.0 12.0 0.00 0.00 0.00 63 1022.6
20190115225039 58 13 4.0 10.0 0.00 0.00 0.00 62 1022.4
20190115224610 58 22 3.0 10.0 0.00 0.00 0.00 62 1022.5